Regional Weather Roundup
Issued by NWS Wakefield, VA

Home | Current Version | Previous Version | Graphics & Text | Print | Product List | Glossary On
Versions: 1 2 3 4 5 6 7 8 9 10 11 12 13 14 15 16 17 18 19 20 21 22 23 24 25 26 27 28 29 30 31 32 33 34 35 36 37 38 39 40 41 42 43 44 45 46 47 48 49 50
000
ASUS41 KAKQ 230610
RWRAKQ

REGIONAL WEATHER ROUNDUP
NATIONAL WEATHER SERVICE WAKEFIELD VA
200 AM EDT TUE SEP 23 2014

Note: "fair" indicates few or no clouds below 12,000 feet with no
significant weather and/or obstructions to visibility. * = Denotes
station may not report precipitation (e.g., rain,snow,etc.),
thunder or fog.

VAZ042-051-052>054-056-230700-
NORTHERN VIRGINIA

CITY           SKY/WX    TMP DP  RH WIND       PRES   REMARKS
WASH NATIONAL  MOCLDY    58  42  55 NW10      30.25F
DULLES         PTCLDY    54  41  61 N9        30.25F
FORT BELVOIR   MOCLDY    57  42  56 NW9       30.25S
QUANTICO       MOCLDY    57  43  59 N12       30.25R
FREDERICKSBRG* MOCLDY    58  46  65 N6        30.24R
STAFFORD*      MOCLDY    55  45  69 CALM      30.29R
WARRENTON      MOCLDY    52  48  87 CALM      30.25R
CULPEPER*      PTCLDY    52  45  76 CALM      30.26R
MANASSAS*      PTCLDY    54  46  76 N9        30.25S
LEESBURG*      PTCLDY    50  46  87 CALM      30.27S
WINCHESTER     CLEAR     46  41  81 CALM      30.27R
FRONT ROYAL*   PTCLDY    48  43  81 CALM      30.26S
LURAY*         PTCLDY    46  45  93 CALM      30.27R
$$

VAZ048-049-060>072-079>083-230700-
CENTRAL AND SOUTH CENTRAL VIRGINIA...AND NORTH CENTRAL NORTH CAROLINA

CITY           SKY/WX    TMP DP  RH WIND       PRES   REMARKS
RICHMOND       MOCLDY    60  46  59 NE10      30.23R
CHESTERFIELD*  CLOUDY   N/A N/A N/A NE7       30.24R
PETERSBURG*    CLOUDY    60  46  59 N7        30.23R
HANOVER        MOCLDY    57  47  69 N3        30.25R
TAPPAHANNOCK*  MOCLDY    59  42  52 N5        30.23S
CHARLOTTSVILLE PTCLDY    53  44  71 CALM      30.25R
ORANGE*        MOCLDY    54  43  66 N3        30.26R
LOUISA*        CLOUDY    55  45  67 NE5       30.24R
FARMVILLE*     CLOUDY    55  46  71 N6        30.22R
CREWE*         CLOUDY    58  45  61 CALM      30.22S
FORT PICKETT*  CLOUDY    58  46  64 N8        30.21R
LUNENBURG*     CLOUDY    60  47  63 N6        30.22R
SOUTH HILL*    CLOUDY    61  52  72 N5        30.27R
LAWRENCEVILLE* CLOUDY    58  51  76 CALM      30.21R
ROANOKE RAPIDS CLOUDY    61  52  72 NE8       30.19R
RALEIGH        CLOUDY    64  54  69 N7        30.17S
$$

VAZ088>098-230700-
SOUTHEAST VIRGINIA

CITY           SKY/WX    TMP DP  RH WIND       PRES   REMARKS
NORFOLK        MOCLDY    68  53  58 NE17      30.17S
VIRGINIA BEACH MOCLDY    66  51  58 N17       30.17R
NORFOLK NAVAL  MOCLDY    68  54  60 N18       30.19R
WEST POINT*    MOCLDY    61  46  57 N3        30.24R
NEWPORT NEWS   MOCLDY    65  49  56 N8G18     30.21R
LANGLEY AFB    PTCLDY    65  51  60 N16       30.19R
FORT EUSTIS    MOCLDY    62  45  52 N9        30.19R
WILLIAMSBURG*  MOCLDY    61  52  72 NE3       30.22R
HR EXEC AP*    MOCLDY    61  54  77 N5        30.20S
FRANKLIN*      CLOUDY    59  54  82 N6        30.19R
WAKEFIELD      CLOUDY    60  49  66 NE7       30.21R
$$

VAZ020-022-025-037-045-230700-
WEST CENTRAL AND SOUTHWEST VIRGINIA

CITY           SKY/WX    TMP DP  RH WIND       PRES   REMARKS
STAUNTON*      PTCLDY    51  42  71 N6        30.28S
HOT SPRINGS VA CLEAR     43  30  60 NW7       30.29S
LYNCHBURG      PTCLDY    55  49  80 NE6       30.24R
DANVILLE       CLOUDY    61  49  64 E7        30.21R
SOUTH BOSTON*  NOT AVBL
MARTINSVILLE   CLOUDY    56  53  89 CALM      30.25R
ROANOKE        MOCLDY    55  45  68 N12       30.26S
BLACKSBURG     PTCLDY    48  48 100 CALM      30.27S
DUBLIN*        MOCLDY    52  47  83 CALM      30.27R
MARION*        PTCLDY    45  43  95 CALM      30.29R
HILLSVILLE*    MOCLDY    47  45  91 CALM      30.26S
RICHLANDS*     CLEAR     50  48  93 N5        30.27S
WISE*          CLEAR     50  46  87 NE5       30.28S
ABINGDON*      CLEAR     51  47  86 E6        30.26R
$$

MDZ021>025-VAZ099-100-230700-
SOUTHERN MARYLAND AND THE DELMARVA PENINSULA

CITY           SKY/WX    TMP DP  RH WIND       PRES   REMARKS
PATUXENT RIVER PTCLDY    59  46  62 N7        30.22S
BAY BRIDGE APT   N/A     61  41  48 N15       30.23S
LEONARDTOWN    MOCLDY    55  43  62 CALM      30.24S
DOVER          MOCLDY    55  43  63 NW10      30.21R
GEORGETOWN     PTCLDY    54  44  69 N5        30.22S
EASTON         MOCLDY    58  47  66 NE6       30.26S
CAMBRIDGE      PTCLDY    61  43  51 N10G17    30.22S
SALISBURY      PTCLDY    56  46  69 N7        30.21S
OCEAN CITY     CLEAR     56  45  66 NW6       30.21R
WALLOPS ISLAND PTCLDY    56  48  74 NE8       30.21R
ACCOMACK*      PTCLDY    57  45  62 N9        30.21R
$$

NCZ012>017-030>032-230700-
EASTERN NORTH CAROLINA

CITY           SKY/WX    TMP DP  RH WIND       PRES   REMARKS
ELIZABETH CITY CLOUDY    66  57  72 NE10      30.16S
AHOSKIE*       CLOUDY    61  56  84 N3        30.19R
EDENTON*       CLOUDY    64  58  81 CALM      30.17R
CURRITUCK*     CLOUDY    69  54  60 N10       30.16F
KILL DEVIL HLS CLOUDY    70  56  60 NE8       30.14S
MANTEO         CLOUDY    69  56  64 NE12G17   30.15S
CAPE HATTERAS  MOCLDY    69  60  73 NE9G16    30.13R
TARBORO*       CLOUDY    63  59  87 N6        30.18R
GOLDSBORO      CLOUDY    66  63  88 CALM      30.14R
WASHINGTON     CLOUDY    63  59  87 CALM      30.16R
GREENVILLE     CLOUDY    64  59  82 NE3       30.17R
NEW BERN       CLOUDY    69  62  78 NE7       30.15R
WILMINGTON     CLOUDY    66  64  93 N5        30.11S
$$

VAZ048-230700-
ELSEWHERE

CITY           SKY/WX    TMP DP  RH WIND       PRES   REMARKS
HARRISBURG PA  PTCLDY    53  40  61 N3        30.24S
BALTIMORE      MOCLDY    52  45  77 CALM      30.24R
ANNAPOLIS      MOCLDY    60  47  61 MISG      30.22F
ANDREWS AFB    MOCLDY    54  43  65 N9        30.25R
WILMINGTON DE  PTCLDY    52  43  71 N6        30.24R
PHILADELPHIA   MOCLDY    55  40  56 NW5       30.24R
WILDWOOD NJ*   MOCLDY    57  41  54 N8        30.23R
ATLANTIC CITY  MOCLDY    51  44  77 CALM      30.21R
HENDERSON NC   CLOUDY    60  55  81 N5        30.21R
GREENSBORO     CLOUDY    60  50  69 N5        30.19R
ROCKY MOUNT    CLOUDY    64  58  80 N8        30.16R
FAYETTEVILLE   LGT RAIN  65  61  87 N3        30.14S
CHARLOTTE      CLOUDY    63  51  65 N10       30.18R
$$

VAZ100-230700-
MARINE

STATION/POSITION TIME  TEMP    WIND        PRES    WAVE   SWELL
                       AIR SEA DIR/SP/G            HT/PER HT/PER
                 (UTC) (F)     (DEG/KT/KT) (MB)    (FT/S) (FT/S)
44066 TX TWR #4  0600   61 70  340/ 17/ 21 1020.9R   6/ 6   3/ 8
CAPE MAY NJ      0600   60 73   10/  6/ 13 1022.7R
LEWES DE         0600   62 70   10/ 22/ 24 1022.8F
15NM E FENWICK I 0600   64 71              1022.0R   5/ 5
OCEAN-CITY-INLET 0600   60 70  360/ 10/ 12 1022.4R
WACHAPREAGUE VA  0600   59 72   20/  7/ 11 1022.7S
THOMAS POINT MD  0600   60 72  350/ 14/ 16 1024.4R
GOOSES REEF MD   0600   63      10/ 17/ 21 1023.9R
COVE POINT MD    0600   62      10/ 16/ 23 1023.1S
SOLOMONS ISLAND  0600      74                N/A
BISHOPS HEAD MD  0600   61 68  360/ 11/ 15 1022.5R
PINEY POINT MD   0600           10/  9/ 11   N/A
POTOMAC MD       0600   63     360/ 12/ 16 1022.6R
CAMBRIDGE MD     0600   61 73   10/ 13/ 16 1023.1F
LEWISETTA VA     0600   62 72   10/ 12/ 17 1023.4R
RAPPAHANNOCK LGT 0600           20/ 23/ 27 1023.0R
STINGRAY PT      0600   67      10/ 19/ 25   N/A
YORK RVR RNG VA  0600   66      10/ 22/ 26 1021.7R
YORKTOWN VA      0600   64 75  360/ 13/ 15 1022.5R
JAMESTOWN VA     0600   61      30/  6/  8   N/A
DOMINION TERM VA 0600   66      50/  3/ 10 1022.0S
KIPTOPEKE VA     0600      78   50/  3/  5   N/A
CHES BAY BRIDGE  0600   68 75   20/ 19/ 23 1021.3R
CAPE HENRY VA    0600   68      20/ 23/ 26 1020.5R
CHESAPEAKE LGHT  0500   69      30/ 19/ 21 1022.0R
WILLOUBY STN VA  0600   67      10/ 15/ 18 1020.6S
S CRANEY ISL VA  0600          340/ 18/ 22 1021.4S
CAPE HENRY BUOY  0500      75                N/A     4/ 5
1ST LANDING BUOY 0600   69      30/ 19/ 23 1021.6R
CAPE CHARLES BUO 0600      74                N/A     4/ 4   2/ 8
OFFSHORE WE BUOY 0600      74                N/A     4/ 4   2/ 8
64NM E OF VA BCH 0600   71 76   10/ 17/ 19 1020.7R   4/ 8   2/ 8
DUCK PIER NC     0600   71 74   20/ 18/ 20 1020.2S
44100 DUCK FRF   0600      74                N/A     4/ 8
44056 DUCK FRF   0600                        N/A     3/ 4
OREGON INLET NC  0600   70 76   30/ 14/ 19 1020.7R
DIAMOND SHLS NC  0600   73      20/ 17/ 21 1019.7R   4/ 6   2/10
CAPE LOOKOUT NC  0500   74      40/ 14/ 15 1019.5R
$$



USA.gov is the U.S. government's official web portal to all federal, state and local government web resources and services.